Preview of NWS' New Version of Forecast
This preview is not operational and should not be used for support decisions.

Regional Weather Roundup (RWR)

Issued by National Weather Service (NWS)

                            
000
ASPQ40 PGUM 230710
RWRPQ 
WEATHER ROUNDUP FOR THE MARIANAS AND MICRONESIA
NATIONAL WEATHER SERVICE TIYAN GU
500 PM CHST TUE APR 23 2019

GUZ001>004-230800-
MARIANA ISLANDS-
  
CITY           SKY/WX    TMP DP  RH WIND       PRES   REMARKS
GUAM AIRPORT   MOSUNNY   86  72  62 E13G22    29.87S HX  92           
ANDERSEN AFB   MOSUNNY   82  73  74 E14       29.88S                  
ROTA AIRPORT   PTSUNNY   82  72  69 E17       29.86F                  
TINIAN AP      MOSUNNY   88  73  62 E16       29.91R HX  96           
SAIPAN AP      MOSUNNY   84  72  65 E16       29.87F                  

$$

PMZ161-230800-
REPUBLIC OF PALAU-
  
CITY           SKY/WX    TMP DP  RH WIND       PRES   REMARKS
KOROR AP       PTSUNNY   86  77  74 NE12G23   29.75S HX  97           
KOROR WSO      NOT AVBL                                               

$$

PMZ171>174-230800-
FEDERATED STATES OF MICRONESIA-
  
CITY           SKY/WX    TMP DP  RH WIND       PRES   REMARKS
YAP AIRPORT    PTSUNNY   88  77  70 E12G21    29.79R HX 100           
CHUUK AP       NOT AVBL                                               
POHNPEI AP     NOT AVBL                                               
POHNPEI WSO    CLOUDY    81  75  83 E10       29.83R                  
KOSRAE AP      NOT AVBL                                               

$$

PMZ181-230800-
REPUBLIC OF THE MARSHALL ISLANDS-
  
CITY           SKY/WX    TMP DP  RH WIND       PRES   REMARKS
KWAJALEIN AP   MOCLDY    82  75  78 E21G26    29.85R                  
MAJURO AP      NOT AVBL                                               
MAJURO WSO     MOCLDY    82  77  83 E12       29.80R HX  91           

$$